Location: Keewatin
(47.4004°N, 93.0827°W)
Time: 01:17:22
(UTC+00:00)

ZACube-1 - Pass Details

Date: 04 March 2020
Orbit: 584 x 666 km, 97.6° (Epoch: 28 March)

Event Time Altitude Azimuth Distance (km) Brightness Sun altitude
Rises 11:27:51 0° 22° (NNE) 3,007 ? -14.0°
Reaches altitude 10° 11:30:24 10° 35° (NE) 2,081 ? -13.6°
Maximum altitude 11:34:17 27° 94° (E) 1,245 ? -12.9°
Drops below altitude 10° 11:38:04 10° 152° (SSE) 2,031 ? -12.3°
Sets 11:40:31 0° 165° (SSE) 2,920 ? -11.9°
